Time,TemperatureF,DewpointF,PressureIn,WindDirection,WindDirectionDegrees,WindSpeedMPH,WindSpeedGustMPH,Humidity,HourlyPrecipIn,Conditions,Clouds,dailyrainin,SoftwareType,DateUTC
2013-05-30 00:01:00,48.4,47.3,29.58,West,275,7.0,7.0,96,0.04,,---,0.01,VWS V13.00,2013-05-30 06:01:00,
2013-05-30 00:06:00,48.4,47.3,29.58,West,275,2.0,7.0,96,0.04,,---,0.01,VWS V13.00,2013-05-30 06:06:00,
2013-05-30 00:11:00,48.4,47.3,29.59,West,277,5.0,8.0,96,0.02,,---,0.01,VWS V13.00,2013-05-30 06:11:00,
2013-05-30 00:16:00,48.4,47.3,29.59,West,278,6.0,9.0,96,0.02,,---,0.01,VWS V13.00,2013-05-30 06:16:00,
2013-05-30 00:21:00,48.4,47.3,29.59,WNW,290,5.0,9.0,96,0.03,,---,0.02,VWS V13.00,2013-05-30 06:21:00,
2013-05-30 00:26:00,48.4,47.3,29.59,WNW,288,6.0,9.0,96,0.03,,---,0.02,VWS V13.00,2013-05-30 06:26:00,
2013-05-30 00:31:00,48.4,47.3,29.59,WNW,298,6.0,9.0,96,0.03,,---,0.02,VWS V13.00,2013-05-30 06:31:00,
2013-05-30 00:36:00,48.4,47.3,29.59,WNW,298,6.0,9.0,96,0.03,,---,0.02,VWS V13.00,2013-05-30 06:36:00,
2013-05-30 00:41:00,48.5,47.4,29.59,WNW,300,4.0,6.0,96,0.03,,---,0.03,VWS V13.00,2013-05-30 06:41:00,
2013-05-30 00:46:00,48.4,47.3,29.59,NW,307,4.0,9.0,96,0.03,,---,0.04,VWS V13.00,2013-05-30 06:46:00,
2013-05-30 00:51:00,48.4,47.3,29.59,NW,307,5.0,10.0,96,0.04,,---,0.04,VWS V13.00,2013-05-30 06:51:00,
2013-05-30 00:56:00,48.4,47.3,29.59,WNW,300,6.0,10.0,96,0.04,,---,0.04,VWS V13.00,2013-05-30 06:56:00,
2013-05-30 01:01:00,48.4,47.3,29.59,NW,304,3.0,10.0,96,0.05,,---,0.05,VWS V13.00,2013-05-30 07:01:00,
2013-05-30 01:06:00,48.3,47.2,29.59,NW,309,10.0,11.0,96,0.05,,---,0.05,VWS V13.00,2013-05-30 07:06:00,
2013-05-30 01:11:00,48.1,47.0,29.59,NW,319,5.0,6.0,96,0.05,,---,0.06,VWS V13.00,2013-05-30 07:11:00,
2013-05-30 01:16:00,47.8,46.7,29.59,NW,319,4.0,6.0,96,0.05,,---,0.06,VWS V13.00,2013-05-30 07:16:00,
2013-05-30 01:21:00,47.6,46.5,29.59,NW,319,2.0,6.0,96,0.06,,---,0.07,VWS V13.00,2013-05-30 07:21:00,
2013-05-30 01:26:00,47.4,46.3,29.59,NW,319,3.0,6.0,96,0.06,,---,0.07,VWS V13.00,2013-05-30 07:26:00,
2013-05-30 01:31:00,47.4,46.3,29.59,NW,319,0.0,6.0,96,0.06,,---,0.07,VWS V13.00,2013-05-30 07:31:00,
2013-05-30 01:36:00,47.3,46.2,29.59,NW,319,0.0,6.0,96,0.06,,---,0.07,VWS V13.00,2013-05-30 07:36:00,
2013-05-30 01:41:00,47.3,46.2,29.59,NW,319,0.0,0.0,96,0.05,,---,0.08,VWS V13.00,2013-05-30 07:41:00,
2013-05-30 01:46:00,47.2,46.1,29.59,NW,319,0.0,0.0,96,0.05,,---,0.08,VWS V13.00,2013-05-30 07:46:00,
2013-05-30 01:51:00,47.3,46.2,29.59,NW,319,0.0,0.0,96,0.05,,---,0.08,VWS V13.00,2013-05-30 07:51:00,
2013-05-30 01:56:00,47.4,46.3,29.59,NW,307,5.0,10.0,96,0.06,,---,0.09,VWS V13.00,2013-05-30 07:56:00,
2013-05-30 02:01:00,47.6,46.5,29.59,WNW,303,6.0,10.0,96,0.06,,---,0.09,VWS V13.00,2013-05-30 08:01:00,
2013-05-30 02:06:00,47.6,46.8,29.59,WNW,300,5.0,10.0,97,0.07,,---,0.10,VWS V13.00,2013-05-30 08:06:00,
2013-05-30 02:11:00,47.6,46.8,29.57,WNW,291,5.0,10.0,97,0.04,,---,0.10,VWS V13.00,2013-05-30 08:11:00,
2013-05-30 02:16:00,47.6,46.5,29.57,WNW,290,7.0,10.0,96,0.05,,---,0.11,VWS V13.00,2013-05-30 08:16:00,
2013-05-30 02:21:00,47.5,46.4,29.57,WNW,292,6.0,11.0,96,0.05,,---,0.12,VWS V13.00,2013-05-30 08:21:00,
2013-05-30 02:26:00,47.4,46.3,29.57,WNW,294,9.0,11.0,96,0.06,,---,0.12,VWS V13.00,2013-05-30 08:26:00,
2013-05-30 02:31:00,47.4,46.3,29.57,WNW,293,9.0,13.0,96,0.07,,---,0.13,VWS V13.00,2013-05-30 08:31:00,
2013-05-30 02:36:00,47.4,46.3,29.57,WNW,294,11.0,16.0,96,0.07,,---,0.13,VWS V13.00,2013-05-30 08:36:00,
2013-05-30 02:41:00,47.2,46.1,29.58,WNW,296,13.0,15.0,96,0.06,,---,0.14,VWS V13.00,2013-05-30 08:41:00,
2013-05-30 02:46:00,47.1,46.0,29.58,WNW,298,12.0,15.0,96,0.07,,---,0.15,VWS V13.00,2013-05-30 08:46:00,
2013-05-30 02:51:00,47.1,46.3,29.58,NW,308,14.0,18.0,97,0.07,,---,0.16,VWS V13.00,2013-05-30 08:51:00,
2013-05-30 02:56:00,46.8,45.7,29.57,WNW,303,12.0,19.0,96,0.08,,---,0.16,VWS V13.00,2013-05-30 08:56:00,
2013-05-30 03:01:00,46.6,45.5,29.57,WNW,298,14.0,19.0,96,0.09,,---,0.17,VWS V13.00,2013-05-30 09:01:00,
2013-05-30 03:06:00,46.5,45.4,29.57,WNW,295,9.0,19.0,96,0.09,,---,0.17,VWS V13.00,2013-05-30 09:06:00,
2013-05-30 03:11:00,46.5,45.7,29.58,WNW,295,12.0,14.0,97,0.08,,---,0.18,VWS V13.00,2013-05-30 09:11:00,
2013-05-30 03:16:00,46.5,45.7,29.58,WNW,291,9.0,14.0,97,0.08,,---,0.18,VWS V13.00,2013-05-30 09:16:00,
2013-05-30 03:21:00,46.5,45.7,29.58,WNW,296,9.0,14.0,97,0.09,,---,0.19,VWS V13.00,2013-05-30 09:21:00,
2013-05-30 03:26:00,46.5,45.7,29.57,WNW,292,11.0,14.0,97,0.09,,---,0.19,VWS V13.00,2013-05-30 09:26:00,
2013-05-30 03:31:00,46.6,45.8,29.57,WNW,286,9.0,14.0,97,0.10,,---,0.20,VWS V13.00,2013-05-30 09:31:00,
2013-05-30 03:36:00,46.6,45.8,29.57,West,281,9.0,16.0,97,0.10,,---,0.20,VWS V13.00,2013-05-30 09:36:00,
2013-05-30 03:41:00,46.6,45.8,29.57,West,275,9.0,15.0,97,0.07,,---,0.21,VWS V13.00,2013-05-30 09:41:00,
2013-05-30 03:46:00,46.7,45.9,29.57,West,280,10.0,15.0,97,0.07,,---,0.21,VWS V13.00,2013-05-30 09:46:00,
2013-05-30 03:51:00,46.6,45.8,29.57,West,279,15.0,15.0,97,0.07,,---,0.21,VWS V13.00,2013-05-30 09:51:00,
2013-05-30 03:56:00,46.7,45.9,29.56,WNW,290,16.0,18.0,97,0.07,,---,0.21,VWS V13.00,2013-05-30 09:56:00,
2013-05-30 04:01:00,46.7,45.9,29.56,WNW,294,12.0,18.0,97,0.08,,---,0.22,VWS V13.00,2013-05-30 10:01:00,
2013-05-30 04:06:00,46.6,45.8,29.56,WNW,288,12.0,18.0,97,0.09,,---,0.23,VWS V13.00,2013-05-30 10:06:00,
2013-05-30 04:11:00,46.6,45.8,29.56,WNW,294,11.0,14.0,97,0.05,,---,0.24,VWS V13.00,2013-05-30 10:11:00,
2013-05-30 04:16:00,46.7,45.9,29.56,WNW,292,8.0,14.0,97,0.06,,---,0.24,VWS V13.00,2013-05-30 10:16:00,
2013-05-30 04:21:00,46.7,45.9,29.56,WNW,290,10.0,14.0,97,0.07,,---,0.25,VWS V13.00,2013-05-30 10:21:00,
2013-05-30 04:26:00,46.7,45.9,29.56,WNW,284,7.0,14.0,97,0.07,,---,0.25,VWS V13.00,2013-05-30 10:26:00,
2013-05-30 04:31:00,46.7,45.9,29.56,West,281,14.0,15.0,97,0.08,,---,0.26,VWS V13.00,2013-05-30 10:31:00,
2013-05-30 04:36:00,46.7,45.9,29.56,WNW,296,10.0,16.0,97,0.09,,---,0.27,VWS V13.00,2013-05-30 10:36:00,
2013-05-30 04:41:00,46.8,46.0,29.55,WNW,296,9.0,17.0,97,0.06,,---,0.27,VWS V13.00,2013-05-30 10:41:00,
2013-05-30 04:46:00,46.9,46.1,29.55,WNW,300,12.0,20.0,97,0.07,,---,0.28,VWS V13.00,2013-05-30 10:46:00,
2013-05-30 04:51:00,46.9,46.1,29.55,WNW,298,14.0,20.0,97,0.08,,---,0.29,VWS V13.00,2013-05-30 10:51:00,
2013-05-30 04:56:00,46.9,46.1,29.55,NW,307,17.0,23.0,97,0.08,,---,0.30,VWS V13.00,2013-05-30 10:56:00,
2013-05-30 05:01:00,46.9,46.1,29.55,NW,306,21.0,25.0,97,0.09,,---,0.30,VWS V13.00,2013-05-30 11:01:00,
2013-05-30 05:06:00,46.8,46.0,29.55,NW,305,19.0,26.0,97,0.10,,---,0.31,VWS V13.00,2013-05-30 11:06:00,
2013-05-30 05:11:00,46.8,46.0,29.55,WNW,300,21.0,24.0,97,0.08,,---,0.32,VWS V13.00,2013-05-30 11:11:00,
2013-05-30 05:16:00,46.7,45.9,29.55,WNW,303,19.0,25.0,97,0.10,,---,0.33,VWS V13.00,2013-05-30 11:16:00,
2013-05-30 05:21:00,46.7,45.9,29.55,WNW,303,16.0,25.0,97,0.11,,---,0.34,VWS V13.00,2013-05-30 11:21:00,
2013-05-30 05:26:00,46.6,45.8,29.55,WNW,295,23.0,28.0,97,0.11,,---,0.35,VWS V13.00,2013-05-30 11:26:00,
2013-05-30 05:31:00,46.6,45.8,29.55,WNW,298,23.0,28.0,97,0.12,,---,0.35,VWS V13.00,2013-05-30 11:31:00,
2013-05-30 05:36:00,46.5,45.7,29.55,NW,304,18.0,28.0,97,0.13,,---,0.36,VWS V13.00,2013-05-30 11:36:00,
2013-05-30 05:40:00,46.5,45.7,29.55,NW,306,23.0,25.0,97,0.10,,---,0.37,VWS V13.00,2013-05-30 11:40:00,
2013-05-30 05:45:00,46.5,45.7,29.55,WNW,288,24.0,25.0,97,0.11,,---,0.38,VWS V13.00,2013-05-30 11:45:00,
2013-05-30 05:50:00,46.5,45.7,29.55,NW,310,22.0,27.0,97,0.11,,---,0.38,VWS V13.00,2013-05-30 11:50:00,
2013-05-30 05:55:00,46.6,45.8,29.56,WNW,294,19.0,27.0,97,0.12,,---,0.39,VWS V13.00,2013-05-30 11:55:00,
2013-05-30 06:00:00,46.5,45.7,29.56,WNW,295,20.0,28.0,97,0.12,,---,0.39,VWS V13.00,2013-05-30 12:00:00,
2013-05-30 06:05:00,46.5,45.7,29.56,WNW,296,22.0,28.0,97,0.12,,---,0.39,VWS V13.00,2013-05-30 12:05:00,
2013-05-30 06:10:00,46.5,45.7,29.56,WNW,290,20.0,24.0,97,0.09,,---,0.40,VWS V13.00,2013-05-30 12:10:00,
2013-05-30 06:15:00,46.5,45.7,29.56,WNW,286,18.0,24.0,97,0.09,,---,0.40,VWS V13.00,2013-05-30 12:15:00,
2013-05-30 06:20:00,46.4,45.6,29.56,WNW,302,14.0,26.0,97,0.09,,---,0.40,VWS V13.00,2013-05-30 12:20:00,
2013-05-30 06:25:00,46.3,45.5,29.58,WNW,283,17.0,26.0,97,0.09,,---,0.40,VWS V13.00,2013-05-30 12:25:00,
2013-05-30 06:30:00,46.2,45.4,29.58,West,271,17.0,26.0,97,0.09,,---,0.40,VWS V13.00,2013-05-30 12:30:00,
2013-05-30 06:35:00,46.1,45.3,29.58,WNW,284,16.0,26.0,97,0.09,,---,0.40,VWS V13.00,2013-05-30 12:35:00,
2013-05-30 06:40:00,45.9,45.1,29.58,WNW,288,21.0,23.0,97,0.03,,---,0.40,VWS V13.00,2013-05-30 12:40:00,
2013-05-30 06:45:00,45.8,44.7,29.58,WNW,284,19.0,24.0,96,0.04,,---,0.41,VWS V13.00,2013-05-30 12:45:00,
2013-05-30 06:50:00,45.7,44.6,29.58,West,274,17.0,26.0,96,0.04,,---,0.41,VWS V13.00,2013-05-30 12:50:00,
2013-05-30 06:55:00,45.6,44.5,29.58,WNW,290,17.0,26.0,96,0.04,,---,0.41,VWS V13.00,2013-05-30 12:55:00,
2013-05-30 07:00:00,45.6,44.5,29.58,West,269,12.0,26.0,96,0.05,,---,0.42,VWS V13.00,2013-05-30 13:00:00,
2013-05-30 07:05:00,45.6,44.5,29.58,West,275,12.0,26.0,96,0.05,,---,0.42,VWS V13.00,2013-05-30 13:05:00,
2013-05-30 07:10:00,45.7,44.6,29.59,West,272,13.0,19.0,96,0.02,,---,0.42,VWS V13.00,2013-05-30 13:10:00,
2013-05-30 07:15:00,45.7,44.6,29.59,West,271,17.0,20.0,96,0.02,,---,0.42,VWS V13.00,2013-05-30 13:15:00,
2013-05-30 07:20:00,45.9,44.8,29.59,WNW,284,15.0,20.0,96,0.03,,---,0.43,VWS V13.00,2013-05-30 13:20:00,
2013-05-30 07:25:00,46.0,44.9,29.59,WNW,288,19.0,23.0,96,0.03,,---,0.43,VWS V13.00,2013-05-30 13:25:00,
2013-05-30 07:30:00,46.0,44.9,29.59,West,276,16.0,23.0,96,0.03,,---,0.43,VWS V13.00,2013-05-30 13:30:00,
2013-05-30 07:35:00,46.0,44.9,29.59,West,274,14.0,26.0,96,0.03,,---,0.43,VWS V13.00,2013-05-30 13:35:00,
2013-05-30 07:40:00,46.0,44.9,29.58,WNW,287,23.0,26.0,96,0.04,,---,0.44,VWS V13.00,2013-05-30 13:40:00,
2013-05-30 07:45:00,45.9,44.8,29.58,WNW,288,20.0,30.0,96,0.04,,---,0.44,VWS V13.00,2013-05-30 13:45:00,
2013-05-30 07:50:00,45.9,44.8,29.58,WNW,287,24.0,30.0,96,0.04,,---,0.44,VWS V13.00,2013-05-30 13:50:00,
2013-05-30 07:55:00,45.8,44.7,29.58,West,279,15.0,30.0,96,0.04,,---,0.44,VWS V13.00,2013-05-30 13:55:00,
2013-05-30 08:00:00,45.8,44.7,29.58,WNW,294,20.0,30.0,96,0.04,,---,0.44,VWS V13.00,2013-05-30 14:00:00,
2013-05-30 08:05:00,45.8,44.5,29.58,West,271,18.0,30.0,95,0.04,,---,0.44,VWS V13.00,2013-05-30 14:05:00,
2013-05-30 08:10:00,45.8,44.5,29.58,West,278,24.0,27.0,95,0.03,,---,0.45,VWS V13.00,2013-05-30 14:10:00,
2013-05-30 08:15:00,45.8,44.5,29.58,WNW,290,26.0,28.0,95,0.03,,---,0.45,VWS V13.00,2013-05-30 14:15:00,
2013-05-30 08:20:00,45.8,44.5,29.58,WNW,284,21.0,28.0,95,0.03,,---,0.45,VWS V13.00,2013-05-30 14:20:00,
2013-05-30 08:25:00,45.6,44.2,29.60,WNW,300,19.0,28.0,95,0.04,,---,0.46,VWS V13.00,2013-05-30 14:25:00,
2013-05-30 08:30:00,45.5,44.2,29.60,WNW,299,15.0,28.0,95,0.04,,---,0.46,VWS V13.00,2013-05-30 14:30:00,
2013-05-30 08:35:00,45.5,44.2,29.60,WNW,299,16.0,28.0,95,0.05,,---,0.47,VWS V13.00,2013-05-30 14:35:00,
2013-05-30 08:40:00,45.4,44.0,29.61,WNW,288,21.0,28.0,95,0.04,,---,0.48,VWS V13.00,2013-05-30 14:40:00,
2013-05-30 08:45:00,45.5,44.4,29.61,WNW,289,22.0,28.0,96,0.04,,---,0.48,VWS V13.00,2013-05-30 14:45:00,
2013-05-30 08:50:00,45.6,44.5,29.61,WNW,294,19.0,28.0,96,0.04,,---,0.48,VWS V13.00,2013-05-30 14:50:00,
2013-05-30 08:55:00,45.6,44.5,29.60,WNW,297,19.0,28.0,96,0.05,,---,0.49,VWS V13.00,2013-05-30 14:55:00,
2013-05-30 09:00:00,45.6,44.5,29.60,WNW,296,18.0,29.0,96,0.05,,---,0.49,VWS V13.00,2013-05-30 15:00:00,
2013-05-30 09:05:00,45.7,44.6,29.60,WNW,295,24.0,29.0,96,0.05,,---,0.49,VWS V13.00,2013-05-30 15:05:00,
2013-05-30 09:10:00,45.7,44.6,29.62,WNW,293,19.0,23.0,96,0.05,,---,0.50,VWS V13.00,2013-05-30 15:10:00,
2013-05-30 09:15:00,45.7,44.6,29.62,WNW,299,17.0,26.0,96,0.05,,---,0.50,VWS V13.00,2013-05-30 15:15:00,
2013-05-30 09:20:00,45.7,44.6,29.62,NW,306,20.0,29.0,96,0.07,,---,0.52,VWS V13.00,2013-05-30 15:20:00,
2013-05-30 09:25:00,45.7,44.6,29.62,WNW,287,18.0,29.0,96,0.08,,---,0.53,VWS V13.00,2013-05-30 15:25:00,
2013-05-30 09:30:00,45.7,44.6,29.62,NW,315,25.0,33.0,96,0.09,,---,0.54,VWS V13.00,2013-05-30 15:30:00,
2013-05-30 09:35:00,45.8,44.7,29.62,WNW,302,22.0,33.0,96,0.11,,---,0.56,VWS V13.00,2013-05-30 15:35:00,
2013-05-30 09:40:00,45.8,44.7,29.62,WNW,291,24.0,29.0,96,0.09,,---,0.57,VWS V13.00,2013-05-30 15:40:00,
2013-05-30 09:45:00,45.8,44.7,29.62,WNW,302,23.0,30.0,96,0.10,,---,0.58,VWS V13.00,2013-05-30 15:45:00,
2013-05-30 09:50:00,45.8,44.7,29.62,NW,321,27.0,31.0,96,0.11,,---,0.59,VWS V13.00,2013-05-30 15:50:00,
2013-05-30 09:55:00,45.9,44.8,29.64,NW,317,30.0,31.0,96,0.12,,---,0.60,VWS V13.00,2013-05-30 15:55:00,
2013-05-30 10:00:00,45.7,44.6,29.64,NW,310,25.0,31.0,96,0.12,,---,0.60,VWS V13.00,2013-05-30 16:00:00,
2013-05-30 10:05:00,45.6,44.5,29.64,NNW,328,21.0,31.0,96,0.13,,---,0.61,VWS V13.00,2013-05-30 16:05:00,
2013-05-30 10:10:00,45.5,44.4,29.64,NW,323,25.0,28.0,96,0.13,,---,0.62,VWS V13.00,2013-05-30 16:10:00,
2013-05-30 10:15:00,45.3,44.2,29.64,NW,322,23.0,31.0,96,0.14,,---,0.63,VWS V13.00,2013-05-30 16:15:00,
2013-05-30 10:20:00,45.1,43.8,29.64,NW,304,21.0,31.0,95,0.15,,---,0.64,VWS V13.00,2013-05-30 16:20:00,
2013-05-30 10:25:00,45.0,43.7,29.65,NW,304,18.0,31.0,95,0.16,,---,0.65,VWS V13.00,2013-05-30 16:25:00,
2013-05-30 10:30:00,45.0,43.9,29.65,WNW,300,19.0,32.0,96,0.17,,---,0.67,VWS V13.00,2013-05-30 16:30:00,
2013-05-30 10:35:00,45.0,43.9,29.65,WNW,300,26.0,32.0,96,0.19,,---,0.68,VWS V13.00,2013-05-30 16:35:00,
2013-05-30 10:40:00,45.0,43.9,29.66,NW,304,24.0,26.0,96,0.12,,---,0.69,VWS V13.00,2013-05-30 16:40:00,
2013-05-30 10:45:00,45.0,43.9,29.66,NW,312,20.0,27.0,96,0.12,,---,0.69,VWS V13.00,2013-05-30 16:45:00,
2013-05-30 10:50:00,45.0,43.7,29.66,West,269,26.0,30.0,95,0.13,,---,0.70,VWS V13.00,2013-05-30 16:50:00,
2013-05-30 10:55:00,44.8,43.5,29.66,WNW,294,20.0,30.0,95,0.15,,---,0.72,VWS V13.00,2013-05-30 16:55:00,
2013-05-30 11:00:00,44.8,43.5,29.66,WNW,292,18.0,30.0,95,0.16,,---,0.73,VWS V13.00,2013-05-30 17:00:00,
2013-05-30 11:05:00,44.8,43.7,29.66,WNW,293,22.0,30.0,96,0.17,,---,0.74,VWS V13.00,2013-05-30 17:05:00,
2013-05-30 11:10:00,44.9,43.8,29.66,WNW,299,20.0,24.0,96,0.13,,---,0.74,VWS V13.00,2013-05-30 17:10:00,
2013-05-30 11:15:00,44.8,43.5,29.66,WNW,295,26.0,30.0,95,0.14,,---,0.75,VWS V13.00,2013-05-30 17:15:00,
2013-05-30 11:20:00,44.9,43.6,29.66,WNW,299,20.0,31.0,95,0.14,,---,0.75,VWS V13.00,2013-05-30 17:20:00,
2013-05-30 11:25:00,45.0,43.7,29.66,West,273,22.0,31.0,95,0.15,,---,0.76,VWS V13.00,2013-05-30 17:25:00,
2013-05-30 11:30:00,45.0,43.7,29.66,WNW,287,25.0,31.0,95,0.15,,---,0.76,VWS V13.00,2013-05-30 17:30:00,
2013-05-30 11:35:00,45.0,43.7,29.66,WNW,294,25.0,31.0,95,0.16,,---,0.77,VWS V13.00,2013-05-30 17:35:00,
2013-05-30 11:40:00,45.0,43.7,29.67,WNW,296,21.0,24.0,95,0.09,,---,0.77,VWS V13.00,2013-05-30 17:40:00,
2013-05-30 11:45:00,44.9,43.6,29.67,WNW,295,19.0,27.0,95,0.09,,---,0.77,VWS V13.00,2013-05-30 17:45:00,
2013-05-30 11:50:00,44.9,43.6,29.67,West,280,20.0,28.0,95,0.10,,---,0.78,VWS V13.00,2013-05-30 17:50:00,
2013-05-30 11:55:00,44.9,43.6,29.69,WNW,294,27.0,30.0,95,0.10,,---,0.78,VWS V13.00,2013-05-30 17:55:00,
2013-05-30 12:00:00,44.9,43.6,29.69,WNW,288,19.0,30.0,95,0.10,,---,0.78,VWS V13.00,2013-05-30 18:00:00,
2013-05-30 12:05:00,44.9,43.6,29.69,WNW,288,22.0,30.0,95,0.10,,---,0.78,VWS V13.00,2013-05-30 18:05:00,
2013-05-30 12:10:00,44.7,43.4,29.69,WNW,282,19.0,27.0,95,0.04,,---,0.78,VWS V13.00,2013-05-30 18:10:00,
2013-05-30 12:15:00,44.6,43.3,29.69,WNW,292,18.0,27.0,95,0.04,,---,0.78,VWS V13.00,2013-05-30 18:15:00,
2013-05-30 12:20:00,44.6,43.3,29.69,West,277,25.0,27.0,95,0.04,,---,0.78,VWS V13.00,2013-05-30 18:20:00,
2013-05-30 12:25:00,44.5,43.2,29.70,WNW,284,22.0,27.0,95,0.04,,---,0.78,VWS V13.00,2013-05-30 18:25:00,
2013-05-30 12:30:00,44.5,42.9,29.70,West,275,18.0,28.0,94,0.05,,---,0.79,VWS V13.00,2013-05-30 18:30:00,
2013-05-30 12:35:00,44.5,42.9,29.70,West,277,19.0,28.0,94,0.05,,---,0.79,VWS V13.00,2013-05-30 18:35:00,
2013-05-30 12:40:00,44.5,42.9,29.70,West,279,20.0,27.0,94,0.02,,---,0.79,VWS V13.00,2013-05-30 18:40:00,
2013-05-30 12:45:00,44.6,43.0,29.70,WNW,292,21.0,28.0,94,0.02,,---,0.79,VWS V13.00,2013-05-30 18:45:00,
2013-05-30 12:50:00,44.7,43.1,29.70,WNW,292,24.0,28.0,94,0.02,,---,0.80,VWS V13.00,2013-05-30 18:50:00,
2013-05-30 12:55:00,44.8,43.2,29.70,West,276,19.0,29.0,94,0.03,,---,0.80,VWS V13.00,2013-05-30 18:55:00,
2013-05-30 13:00:00,44.8,43.2,29.70,WNW,286,18.0,29.0,94,0.03,,---,0.80,VWS V13.00,2013-05-30 19:00:00,
2013-05-30 13:05:00,44.7,42.8,29.70,West,275,17.0,29.0,93,0.04,,---,0.81,VWS V13.00,2013-05-30 19:05:00,
2013-05-30 13:10:00,44.6,42.7,29.70,WNW,289,22.0,26.0,93,0.04,,---,0.82,VWS V13.00,2013-05-30 19:10:00,
2013-05-30 13:15:00,44.5,42.6,29.70,WNW,295,16.0,30.0,93,0.05,,---,0.83,VWS V13.00,2013-05-30 19:15:00,
2013-05-30 13:20:00,44.5,42.6,29.70,WNW,293,19.0,30.0,93,0.06,,---,0.84,VWS V13.00,2013-05-30 19:20:00,
2013-05-30 13:25:00,44.5,42.6,29.70,WNW,285,18.0,33.0,93,0.07,,---,0.85,VWS V13.00,2013-05-30 19:25:00,
2013-05-30 13:30:00,44.5,42.6,29.70,WNW,286,20.0,33.0,93,0.08,,---,0.86,VWS V13.00,2013-05-30 19:30:00,
2013-05-30 13:35:00,44.6,42.7,29.70,WNW,293,21.0,33.0,93,0.09,,---,0.87,VWS V13.00,2013-05-30 19:35:00,
2013-05-30 13:40:00,44.6,42.7,29.71,WNW,290,20.0,29.0,93,0.09,,---,0.88,VWS V13.00,2013-05-30 19:40:00,
2013-05-30 13:45:00,44.7,42.8,29.71,WNW,301,21.0,29.0,93,0.10,,---,0.89,VWS V13.00,2013-05-30 19:45:00,
2013-05-30 13:50:00,44.7,42.8,29.71,NW,311,32.0,35.0,93,0.11,,---,0.90,VWS V13.00,2013-05-30 19:50:00,
2013-05-30 13:55:00,44.5,42.0,29.72,NW,309,29.0,36.0,91,0.11,,---,0.90,VWS V13.00,2013-05-30 19:55:00,
2013-05-30 14:00:00,44.4,42.2,29.72,WNW,296,24.0,36.0,92,0.12,,---,0.91,VWS V13.00,2013-05-30 20:00:00,
2013-05-30 14:05:00,44.4,42.2,29.72,WNW,298,23.0,36.0,92,0.13,,---,0.92,VWS V13.00,2013-05-30 20:05:00,
2013-05-30 14:10:00,44.3,42.1,29.73,NW,313,30.0,30.0,92,0.10,,---,0.92,VWS V13.00,2013-05-30 20:10:00,
2013-05-30 14:15:00,44.2,41.7,29.73,NW,304,18.0,33.0,91,0.10,,---,0.92,VWS V13.00,2013-05-30 20:15:00,
2013-05-30 14:20:00,44.2,42.0,29.73,NW,313,23.0,33.0,92,0.10,,---,0.92,VWS V13.00,2013-05-30 20:20:00,
2013-05-30 14:25:00,44.2,42.3,29.75,NW,317,21.0,33.0,93,0.11,,---,0.93,VWS V13.00,2013-05-30 20:25:00,
2013-05-30 14:30:00,44.3,42.4,29.75,NW,306,20.0,33.0,93,0.11,,---,0.93,VWS V13.00,2013-05-30 20:30:00,
2013-05-30 14:35:00,44.3,42.4,29.75,WNW,303,21.0,33.0,93,0.11,,---,0.93,VWS V13.00,2013-05-30 20:35:00,
2013-05-30 14:40:00,44.3,42.4,29.75,WNW,298,23.0,25.0,93,0.05,,---,0.93,VWS V13.00,2013-05-30 20:40:00,
2013-05-30 14:45:00,44.3,42.1,29.75,WNW,299,16.0,29.0,92,0.05,,---,0.93,VWS V13.00,2013-05-30 20:45:00,
2013-05-30 14:50:00,44.4,42.2,29.75,WNW,296,20.0,29.0,92,0.05,,---,0.93,VWS V13.00,2013-05-30 20:50:00,
2013-05-30 14:55:00,44.4,42.2,29.75,NW,311,23.0,29.0,92,0.06,,---,0.94,VWS V13.00,2013-05-30 20:55:00,
2013-05-30 15:00:00,44.5,42.3,29.75,WNW,303,22.0,29.0,92,0.06,,---,0.94,VWS V13.00,2013-05-30 21:00:00,
2013-05-30 15:05:00,44.6,42.4,29.75,WNW,298,21.0,30.0,92,0.06,,---,0.94,VWS V13.00,2013-05-30 21:05:00,
2013-05-30 15:10:00,44.6,42.4,29.74,NW,309,23.0,27.0,92,0.02,,---,0.94,VWS V13.00,2013-05-30 21:10:00,
2013-05-30 15:15:00,44.6,42.4,29.74,WNW,288,22.0,27.0,92,0.02,,---,0.94,VWS V13.00,2013-05-30 21:15:00,
2013-05-30 15:20:00,44.6,42.4,29.74,NW,305,23.0,27.0,92,0.02,,---,0.94,VWS V13.00,2013-05-30 21:20:00,
2013-05-30 15:25:00,44.7,42.5,29.74,WNW,296,21.0,27.0,92,0.03,,---,0.95,VWS V13.00,2013-05-30 21:25:00,
2013-05-30 15:30:00,44.6,42.1,29.74,NW,314,20.0,34.0,91,0.03,,---,0.95,VWS V13.00,2013-05-30 21:30:00,
2013-05-30 15:35:00,44.6,42.4,29.74,NW,306,22.0,34.0,92,0.03,,---,0.95,VWS V13.00,2013-05-30 21:35:00,
2013-05-30 15:40:00,44.5,42.3,29.75,NW,311,21.0,25.0,92,0.03,,---,0.96,VWS V13.00,2013-05-30 21:40:00,
2013-05-30 15:45:00,44.5,42.6,29.75,WNW,300,15.0,25.0,93,0.03,,---,0.96,VWS V13.00,2013-05-30 21:45:00,
2013-05-30 15:50:00,44.6,42.7,29.75,WNW,298,18.0,25.0,93,0.03,,---,0.97,VWS V13.00,2013-05-30 21:50:00,
2013-05-30 15:55:00,44.7,43.1,29.75,WNW,296,15.0,25.0,94,0.04,,---,0.97,VWS V13.00,2013-05-30 21:55:00,
2013-05-30 16:00:00,44.8,43.2,29.75,NW,310,18.0,25.0,94,0.05,,---,0.98,VWS V13.00,2013-05-30 22:00:00,
2013-05-30 16:05:00,44.9,43.3,29.75,WNW,298,21.0,25.0,94,0.05,,---,0.98,VWS V13.00,2013-05-30 22:05:00,
2013-05-30 16:10:00,45.0,43.4,29.75,NW,317,17.0,24.0,94,0.05,,---,0.99,VWS V13.00,2013-05-30 22:10:00,
2013-05-30 16:15:00,45.0,43.4,29.75,WNW,296,17.0,25.0,94,0.06,,---,1.00,VWS V13.00,2013-05-30 22:15:00,
2013-05-30 16:20:00,45.0,43.4,29.75,WNW,292,14.0,26.0,94,0.07,,---,1.01,VWS V13.00,2013-05-30 22:20:00,
2013-05-30 16:25:00,44.9,43.6,29.75,NW,304,22.0,26.0,95,0.07,,---,1.01,VWS V13.00,2013-05-30 22:25:00,
2013-05-30 16:30:00,44.9,43.3,29.75,WNW,302,24.0,27.0,94,0.08,,---,1.02,VWS V13.00,2013-05-30 22:30:00,
2013-05-30 16:35:00,44.9,43.3,29.75,WNW,303,20.0,27.0,94,0.08,,---,1.02,VWS V13.00,2013-05-30 22:35:00,
2013-05-30 16:40:00,45.0,43.7,29.76,NW,308,19.0,25.0,95,0.07,,---,1.02,VWS V13.00,2013-05-30 22:40:00,
2013-05-30 16:45:00,45.0,43.7,29.76,WNW,286,18.0,25.0,95,0.07,,---,1.02,VWS V13.00,2013-05-30 22:45:00,
2013-05-30 16:50:00,45.0,43.4,29.76,NW,305,15.0,26.0,94,0.08,,---,1.03,VWS V13.00,2013-05-30 22:50:00,
2013-05-30 16:55:00,45.0,43.4,29.76,NW,313,18.0,26.0,94,0.08,,---,1.03,VWS V13.00,2013-05-30 22:55:00,
2013-05-30 17:00:00,44.8,43.2,29.76,NW,307,19.0,26.0,94,0.08,,---,1.03,VWS V13.00,2013-05-30 23:00:00,
2013-05-30 17:05:00,44.6,43.0,29.76,WNW,303,16.0,26.0,94,0.09,,---,1.04,VWS V13.00,2013-05-30 23:05:00,
2013-05-30 17:10:00,44.5,42.9,29.77,NW,314,18.0,25.0,94,0.05,,---,1.04,VWS V13.00,2013-05-30 23:10:00,
2013-05-30 17:15:00,44.5,42.9,29.77,NW,324,19.0,25.0,94,0.05,,---,1.04,VWS V13.00,2013-05-30 23:15:00,
2013-05-30 17:20:00,44.5,42.9,29.77,WNW,302,16.0,25.0,94,0.05,,---,1.04,VWS V13.00,2013-05-30 23:20:00,
2013-05-30 17:25:00,44.6,43.0,29.77,NW,304,18.0,26.0,94,0.05,,---,1.04,VWS V13.00,2013-05-30 23:25:00,
2013-05-30 17:30:00,44.7,43.1,29.77,WNW,292,14.0,26.0,94,0.06,,---,1.05,VWS V13.00,2013-05-30 23:30:00,
2013-05-30 17:35:00,44.7,43.4,29.77,NW,307,15.0,26.0,95,0.06,,---,1.05,VWS V13.00,2013-05-30 23:35:00,
2013-05-30 17:40:00,44.9,43.6,29.76,NW,310,26.0,26.0,95,0.03,,---,1.05,VWS V13.00,2013-05-30 23:40:00,
2013-05-30 17:45:00,44.8,43.2,29.76,WNW,301,15.0,28.0,94,0.03,,---,1.05,VWS V13.00,2013-05-30 23:45:00,
2013-05-30 17:50:00,44.9,43.3,29.76,NW,311,22.0,28.0,94,0.04,,---,1.06,VWS V13.00,2013-05-30 23:50:00,
2013-05-30 17:55:00,44.9,43.3,29.77,NW,304,23.0,28.0,94,0.04,,---,1.06,VWS V13.00,2013-05-30 23:55:00,
2013-05-30 18:00:00,44.8,42.9,29.77,WNW,302,20.0,28.0,93,0.04,,---,1.06,VWS V13.00,2013-05-31 00:00:00,
2013-05-30 18:05:00,44.7,42.8,29.77,WNW,300,17.0,28.0,93,0.04,,---,1.06,VWS V13.00,2013-05-31 00:05:00,
2013-05-30 18:10:00,44.7,42.8,29.78,WNW,299,23.0,25.0,93,0.02,,---,1.06,VWS V13.00,2013-05-31 00:10:00,
2013-05-30 18:15:00,44.7,42.5,29.78,WNW,301,26.0,29.0,92,0.02,,---,1.06,VWS V13.00,2013-05-31 00:15:00,
2013-05-30 18:20:00,44.6,42.4,29.78,WNW,297,17.0,29.0,92,0.02,,---,1.06,VWS V13.00,2013-05-31 00:20:00,
2013-05-30 18:25:00,44.5,42.3,29.78,WNW,286,19.0,29.0,92,0.03,,---,1.07,VWS V13.00,2013-05-31 00:25:00,
2013-05-30 18:30:00,44.4,41.9,29.78,WNW,295,21.0,29.0,91,0.03,,---,1.07,VWS V13.00,2013-05-31 00:30:00,
2013-05-30 18:35:00,44.3,41.8,29.78,WNW,300,22.0,29.0,91,0.03,,---,1.07,VWS V13.00,2013-05-31 00:35:00,
2013-05-30 18:40:00,44.2,42.0,29.78,WNW,291,18.0,28.0,92,0.02,,---,1.07,VWS V13.00,2013-05-31 00:40:00,
2013-05-30 18:45:00,44.2,41.7,29.78,WNW,298,20.0,28.0,91,0.03,,---,1.08,VWS V13.00,2013-05-31 00:45:00,
2013-05-30 18:50:00,44.2,41.7,29.78,WNW,298,20.0,28.0,91,0.03,,---,1.08,VWS V13.00,2013-05-31 00:50:00,
2013-05-30 18:55:00,44.1,41.7,29.79,WNW,292,27.0,28.0,91,0.03,,---,1.08,VWS V13.00,2013-05-31 00:55:00,
2013-05-30 19:00:00,44.1,41.7,29.79,WNW,299,20.0,28.0,91,0.03,,---,1.08,VWS V13.00,2013-05-31 01:00:00,
2013-05-30 19:05:00,44.1,41.7,29.79,WNW,290,23.0,29.0,91,0.03,,---,1.08,VWS V13.00,2013-05-31 01:05:00,
2013-05-30 19:10:00,44.1,41.7,29.79,WNW,291,24.0,30.0,91,0.02,,---,1.08,VWS V13.00,2013-05-31 01:10:00,
2013-05-30 19:15:00,44.0,41.5,29.79,WNW,300,21.0,30.0,91,0.02,,---,1.08,VWS V13.00,2013-05-31 01:15:00,
2013-05-30 19:20:00,44.0,41.5,29.79,WNW,290,17.0,30.0,91,0.02,,---,1.08,VWS V13.00,2013-05-31 01:20:00,
2013-05-30 19:25:00,43.9,41.7,29.79,WNW,286,20.0,30.0,92,0.02,,---,1.08,VWS V13.00,2013-05-31 01:25:00,
2013-05-30 19:30:00,43.9,41.5,29.79,WNW,291,22.0,30.0,91,0.03,,---,1.09,VWS V13.00,2013-05-31 01:30:00,
2013-05-30 19:35:00,43.9,41.5,29.79,WNW,287,25.0,30.0,91,0.03,,---,1.09,VWS V13.00,2013-05-31 01:35:00,
2013-05-30 19:40:00,43.9,41.5,29.79,West,273,21.0,24.0,91,0.02,,---,1.09,VWS V13.00,2013-05-31 01:40:00,
2013-05-30 19:45:00,43.8,41.3,29.79,WNW,297,21.0,32.0,91,0.02,,---,1.09,VWS V13.00,2013-05-31 01:45:00,
2013-05-30 19:50:00,43.9,41.5,29.79,West,279,19.0,32.0,91,0.02,,---,1.09,VWS V13.00,2013-05-31 01:50:00,
2013-05-30 19:55:00,43.9,41.5,29.80,NW,310,24.0,32.0,91,0.02,,---,1.09,VWS V13.00,2013-05-31 01:55:00,
2013-05-30 20:00:00,43.9,41.5,29.80,WNW,294,11.0,32.0,91,0.02,,---,1.09,VWS V13.00,2013-05-31 02:00:00,
2013-05-30 20:05:00,43.8,41.6,29.80,West,276,14.0,32.0,92,0.02,,---,1.09,VWS V13.00,2013-05-31 02:05:00,
2013-05-30 20:10:00,43.7,41.5,29.80,WNW,284,18.0,20.0,92,0.01,,---,1.09,VWS V13.00,2013-05-31 02:10:00,
2013-05-30 20:15:00,43.7,41.5,29.80,WNW,290,14.0,22.0,92,0.01,,---,1.09,VWS V13.00,2013-05-31 02:15:00,
2013-05-30 20:20:00,43.7,41.5,29.80,NW,308,14.0,22.0,92,0.01,,---,1.09,VWS V13.00,2013-05-31 02:20:00,
2013-05-30 20:25:00,43.6,41.7,29.80,West,277,17.0,22.0,93,0.01,,---,1.09,VWS V13.00,2013-05-31 02:25:00,
2013-05-30 20:30:00,43.6,41.7,29.80,WNW,293,16.0,24.0,93,0.02,,---,1.10,VWS V13.00,2013-05-31 02:30:00,
2013-05-30 20:35:00,43.6,41.7,29.80,WNW,288,15.0,24.0,93,0.02,,---,1.10,VWS V13.00,2013-05-31 02:35:00,
2013-05-30 20:40:00,43.5,41.9,29.80,West,277,13.0,14.0,94,0.01,,---,1.10,VWS V13.00,2013-05-31 02:40:00,
2013-05-30 20:45:00,43.4,41.8,29.80,West,279,11.0,17.0,94,0.02,,---,1.11,VWS V13.00,2013-05-31 02:45:00,
2013-05-30 20:50:00,43.3,41.7,29.80,West,279,9.0,19.0,94,0.02,,---,1.11,VWS V13.00,2013-05-31 02:50:00,
2013-05-30 20:55:00,43.2,41.6,29.81,WNW,284,12.0,19.0,94,0.02,,---,1.11,VWS V13.00,2013-05-31 02:55:00,
2013-05-30 21:00:00,43.2,41.6,29.81,WNW,290,16.0,20.0,94,0.03,,---,1.12,VWS V13.00,2013-05-31 03:00:00,
2013-05-30 21:05:00,43.2,41.6,29.81,West,279,19.0,22.0,94,0.03,,---,1.12,VWS V13.00,2013-05-31 03:05:00,
2013-05-30 21:10:00,43.1,41.5,29.81,WNW,287,21.0,21.0,94,0.03,,---,1.12,VWS V13.00,2013-05-31 03:10:00,
2013-05-30 21:15:00,43.1,41.8,29.81,WNW,288,18.0,22.0,95,0.03,,---,1.12,VWS V13.00,2013-05-31 03:15:00,
2013-05-30 21:20:00,43.1,41.8,29.81,WNW,284,16.0,22.0,95,0.03,,---,1.12,VWS V13.00,2013-05-31 03:20:00,
2013-05-30 21:25:00,43.1,41.8,29.81,WNW,287,15.0,22.0,95,0.03,,---,1.13,VWS V13.00,2013-05-31 03:25:00,
2013-05-30 21:30:00,43.1,41.8,29.81,WNW,286,16.0,22.0,95,0.04,,---,1.13,VWS V13.00,2013-05-31 03:30:00,
2013-05-30 21:35:00,43.1,41.8,29.81,WNW,295,16.0,22.0,95,0.04,,---,1.13,VWS V13.00,2013-05-31 03:35:00,
2013-05-30 21:40:00,43.2,41.9,29.81,WNW,286,13.0,17.0,95,0.03,,---,1.13,VWS V13.00,2013-05-31 03:40:00,
2013-05-30 21:45:00,43.2,41.9,29.81,West,274,13.0,17.0,95,0.04,,---,1.14,VWS V13.00,2013-05-31 03:45:00,
2013-05-30 21:50:00,43.2,41.9,29.81,West,275,14.0,19.0,95,0.04,,---,1.14,VWS V13.00,2013-05-31 03:50:00,
2013-05-30 21:55:00,43.3,42.0,29.81,WNW,288,12.0,21.0,95,0.04,,---,1.14,VWS V13.00,2013-05-31 03:55:00,
2013-05-30 22:00:00,43.5,42.4,29.81,WNW,302,19.0,22.0,96,0.04,,---,1.14,VWS V13.00,2013-05-31 04:00:00,
2013-05-30 22:01:00,43.5,42.4,29.81,WNW,302,11.0,22.0,96,0.04,,---,1.14,VWS V13.00,2013-05-31 04:01:00,
2013-05-30 22:06:00,43.7,42.6,29.81,WNW,294,21.0,22.0,96,0.04,,---,1.14,VWS V13.00,2013-05-31 04:06:00,
2013-05-30 22:11:00,43.8,42.7,29.81,WNW,294,17.0,27.0,96,0.03,,---,1.15,VWS V13.00,2013-05-31 04:11:00,
2013-05-30 22:16:00,43.8,42.7,29.81,WNW,292,18.0,27.0,96,0.03,,---,1.15,VWS V13.00,2013-05-31 04:16:00,
2013-05-30 22:21:00,43.8,42.7,29.81,WNW,298,24.0,27.0,96,0.03,,---,1.15,VWS V13.00,2013-05-31 04:21:00,
2013-05-30 22:26:00,43.8,42.5,29.81,NW,311,20.0,32.0,95,0.03,,---,1.15,VWS V13.00,2013-05-31 04:26:00,
2013-05-30 22:31:00,43.8,42.5,29.81,NW,325,24.0,32.0,95,0.03,,---,1.15,VWS V13.00,2013-05-31 04:31:00,
2013-05-30 22:36:00,43.8,42.5,29.81,WNW,287,19.0,32.0,95,0.04,,---,1.16,VWS V13.00,2013-05-31 04:36:00,
2013-05-30 22:41:00,43.7,42.4,29.82,WNW,295,18.0,33.0,95,0.03,,---,1.16,VWS V13.00,2013-05-31 04:41:00,
2013-05-30 22:46:00,43.7,42.1,29.82,WNW,302,25.0,33.0,94,0.03,,---,1.16,VWS V13.00,2013-05-31 04:46:00,
2013-05-30 22:51:00,43.6,42.0,29.82,WNW,297,28.0,33.0,94,0.03,,---,1.16,VWS V13.00,2013-05-31 04:51:00,
2013-05-30 22:56:00,43.5,41.9,29.80,WNW,299,28.0,33.0,94,0.03,,---,1.16,VWS V13.00,2013-05-31 04:56:00,
2013-05-30 23:01:00,43.4,41.8,29.80,WNW,295,17.0,33.0,94,0.03,,---,1.16,VWS V13.00,2013-05-31 05:01:00,
2013-05-30 23:06:00,43.3,41.7,29.80,WNW,290,17.0,33.0,94,0.04,,---,1.17,VWS V13.00,2013-05-31 05:06:00,
2013-05-30 23:11:00,43.2,41.9,29.81,WNW,296,20.0,28.0,95,0.03,,---,1.17,VWS V13.00,2013-05-31 05:11:00,
2013-05-30 23:16:00,43.2,41.9,29.81,WNW,295,21.0,29.0,95,0.03,,---,1.17,VWS V13.00,2013-05-31 05:16:00,
2013-05-30 23:21:00,43.2,41.9,29.81,WNW,292,27.0,32.0,95,0.03,,---,1.17,VWS V13.00,2013-05-31 05:21:00,
2013-05-30 23:26:00,43.3,42.0,29.81,WNW,302,22.0,32.0,95,0.03,,---,1.17,VWS V13.00,2013-05-31 05:26:00,
2013-05-30 23:31:00,43.2,41.9,29.81,NW,307,21.0,32.0,95,0.03,,---,1.17,VWS V13.00,2013-05-31 05:31:00,
2013-05-30 23:36:00,43.1,41.8,29.81,WNW,302,21.0,32.0,95,0.03,,---,1.17,VWS V13.00,2013-05-31 05:36:00,
2013-05-30 23:41:00,43.1,41.5,29.80,WNW,296,20.0,33.0,94,0.01,,---,0.00,VWS V13.00,2013-05-31 05:41:00,
2013-05-30 23:46:00,43.0,41.7,29.80,WNW,289,22.0,33.0,95,0.02,,---,0.01,VWS V13.00,2013-05-31 05:46:00,
2013-05-30 23:51:00,43.0,41.4,29.80,WNW,292,28.0,33.0,94,0.02,,---,0.01,VWS V13.00,2013-05-31 05:51:00,
2013-05-30 23:56:00,42.9,41.6,29.81,WNW,287,19.0,33.0,95,0.02,,---,0.01,VWS V13.00,2013-05-31 05:56:00,